Temperature
7 6 6 6 7 8 7 7 7 8 8 7 7 7 8 8 8 7 8 9 9 10 10 10 10 10 9 9 9 9 9 9 9 9 9 9 9 9 9 9 8 8 8 8
6 6 7 7 7 7 7 7 7 8 8 7 7 7 7 7 7 8 8 9 9 10 10 10 10 10 9 9 9 9 9 9 9 9 9 9 8 8 8 8 8 8 7 7
7 7 7 7 7 7 7 7 7 7 7 7 7 7 8 7 7 8 9 9 9 10 9 10 9 9 9 9 9 9 9 9 8 8 8 8 8 8 8 8 7 7 7 7
6 7 7 7 7 7 7 7 7 7 7 6 7 7 8 7 7 7 7 8 9 9 9 9 9 9 9 9 9 8 8 8 8 8 8 8 8 7 7 7 7 7 7 7
6 7 7 7 7 7 7 7 6 6 6 6 5 6 7 7 7 7 6 7 8 9 9 9 9 9 9 8 8 8 8 8 8 8 8 7 7 7 7 7 7 6 6 6
6 7 7 7 7 7 6 6 5 4 5 6 6 5 7 6 7 7 7 7 8 9 9 9 9 8 8 8 8 8 8 8 8 8 7 7 7 7 7 7 6 6 6 6
6 6 6 6 6 6 6 6 6 6 5 6 5 5 6 7 6 7 7 7 8 8 8 8 8 8 8 8 8 8 8 7 7 7 7 7 7 7 6 6 6 6 6 6
5 6 6 6 6 6 5 6 6 7 6 6 5 5 6 7 7 7 7 7 8 8 8 8 8 8 8 8 7 7 7 7 7 7 7 7 7 6 6 6 6 6 6 6
5 6 6 6 6 6 5 5 5 4 5 6 5 5 5 6 6 6 6 7 7 7 8 8 8 8 8 7 7 7 7 7 7 7 7 7 6 6 6 6 6 5 5 5
5 5 5 6 6 5 5 4 4 5 6 7 7 6 6 7 7 6 5 5 7 7 7 7 7 7 7 7 7 7 7 7 7 7 7 6 6 6 6 6 6 5 5 5
4 4 4 5 5 5 5 4 4 3 4 6 7 7 7 6 7 6 5 6 7 7 7 7 7 7 7 7 7 7 7 7 7 7 6 6 6 6 6 6 5 5 5 5
4 3 3 4 5 5 5 5 4 5 4 3 5 7 7 6 6 5 5 6 7 7 7 7 7 7 7 7 7 7 7 7 7 6 6 6 6 6 6 5 5 5 5 5
3 3 4 5 4 4 4 4 3 3 2 2 4 7 7 6 6 6 6 6 7 7 7 7 7 7 7 7 7 7 7 7 6 6 6 6 6 6 6 5 5 5 5 5
4 3 4 6 5 3 3 3 3 3 3 3 4 6 6 6 6 6 6 6 7 7 7 7 7 7 7 7 7 7 7 6 6 6 6 6 6 6 5 5 5 5 5 5
3 2 3 3 4 3 4 4 3 4 4 4 5 4 6 6 6 6 6 6 6 6 6 7 7 7 7 7 7 7 7 6 6 6 6 6 6 5 5 5 5 5 5 4
2 2 2 3 3 4 4 4 4 4 4 4 4 4 5 5 5 5 6 6 5 6 6 6 7 7 7 7 7 7 7 6 6 6 6 6 5 5 5 5 5 5 4 4
1 1 2 2 3 4 4 4 4 3 3 4 5 5 5 4 4 5 5 5 6 6 6 6 6 6 6 6 6 6 6 6 6 6 5 5 5 5 5 5 4 4 4 4
1 1 1 1 3 4 6 4 4 4 3 3 4 4 4 5 5 6 6 6 6 6 6 6 6 6 6 6 6 6 6 6 6 6 5 5 5 5 5 4 4 4 4 4
1 1 1 1 3 4 4 3 3 3 3 3 3 3 4 4 4 5 6 6 6 6 6 6 6 6 6 6 6 6 6 6 5 5 5 5 4 4 4 4 4 4 4 4
1 1 1 1 3 4 5 3 3 4 4 3 3 3 3 3 3 4 5 6 6 6 6 6 6 6 6 6 5 5 5 5 5 5 5 4 4 4 4 4 3 3 3 3
0 0 0 1 2 3 3 2 3 4 4 3 3 3 3 2 3 4 5 5 5 5 5 5 5 5 5 5 5 5 5 4 4 4 4 4 4 4 3 3 3 3 3 3
0 -0 -0 -0 1 3 2 1 2 3 3 3 3 3 3 3 3 4 4 4 4 5 5 5 5 5 5 5 5 4 4 4 4 4 3 3 3 3 3 3 3 2 2 2
-0 0 0 1 2 2 2 2 3 3 3 3 3 3 3 3 3 3 3 4 4 4 4 4 4 4 4 4 4 4 3 3 3 3 3 3 3 3 2 2 2 2 2 2
-1 -0 -0 -0 0 1 2 2 3 3 3 3 3 3 3 3 3 3 3 3 3 4 4 4 3 3 3 3 3 3 3 3 3 3 3 2 2 2 2 2 2 1 1 1
-1 -1 -1 -1 -0 0 1 2 3 3 3 3 3 2 2 2 2 2 2 3 3 3 3 3 3 3 2 2 2 2 2 2 2 2 2 2 2 1 1 1 1 0 0 0
-2 -1 -1 0 0 0 1 2 2 2 2 2 2 2 2 2 2 2 2 2 2 2 3 2 2 2 2 2 2 2 2 2 2 1 1 1 1 1 1 0 0 0 -0 -0
Wind_Speed
3 3 7 10 9 4 5 5 4 4 2 3 7 11 12 7 6 8 8 7 7 9 7 5 5 5 4 4 4 5 4 4 3 2 2 3 3 4 4 4 5 5 6 6
3 6 8 5 5 3 3 3 3 3 1 3 5 11 11 9 8 8 9 8 8 7 5 4 4 4 5 5 5 5 5 5 4 3 3 3 3 4 4 4 4 5 5 6
9 4 5 7 5 6 5 6 5 4 3 2 4 8 6 5 4 5 6 7 7 7 7 5 5 5 5 5 6 6 6 5 5 3 2 2 2 3 2 3 3 4 5 6
5 4 4 5 6 7 6 5 5 3 1 3 1 5 6 4 4 6 7 6 7 6 6 6 6 5 6 6 6 6 5 5 4 3 3 3 3 4 5 4 4 5 5 6
5 4 5 6 6 8 5 3 4 2 3 2 1 3 9 2 5 7 7 8 7 6 6 7 6 6 6 6 5 5 5 4 4 4 4 4 4 4 4 4 4 5 5 5
3 2 4 5 2 6 6 5 5 4 3 4 5 6 8 5 7 5 5 6 6 6 5 6 5 5 4 4 4 4 4 4 4 4 4 4 5 4 4 4 4 4 4 4
2 2 2 4 5 3 5 5 2 2 1 7 3 5 10 8 6 6 6 6 6 5 5 5 4 4 4 4 4 4 4 5 4 4 4 5 5 5 5 5 5 4 4 3
6 5 6 5 6 7 7 7 7 6 6 4 2 7 8 6 4 5 5 4 3 4 4 5 6 5 5 5 5 4 5 5 5 4 5 5 5 4 4 4 4 4 4 4
7 5 0 3 3 9 7 5 5 5 2 3 6 7 8 4 4 3 3 2 4 4 5 6 6 5 5 5 6 5 5 5 5 5 5 4 4 4 4 4 4 4 4 4
5 3 1 2 4 1 5 8 5 5 5 5 6 6 5 5 5 4 4 4 5 4 4 5 5 5 5 6 6 5 5 6 5 5 4 4 4 4 4 3 4 4 4 4
3 4 0 2 6 8 6 5 5 5 4 5 4 7 6 7 5 5 6 5 5 4 5 6 6 5 5 5 4 4 4 4 4 4 3 3 3 3 3 3 4 4 4 4
2 3 3 4 3 4 5 7 8 6 5 4 4 7 3 5 4 4 5 5 5 5 5 5 5 4 4 4 3 3 3 3 3 3 2 3 3 3 2 3 3 3 3 4
3 3 2 0 1 1 4 4 5 5 4 5 5 7 3 2 3 3 4 4 4 4 4 3 3 3 3 3 3 3 3 3 2 1 2 2 2 2 2 3 2 2 2 2
1 2 5 8 5 6 5 6 6 6 5 6 8 9 7 6 5 5 5 5 4 5 4 3 3 3 3 3 3 3 3 2 2 1 1 2 3 2 2 2 1 1 1 1
2 3 3 4 2 3 5 8 10 10 9 9 9 10 11 8 6 5 4 4 4 5 5 4 4 3 3 3 3 3 3 2 1 1 1 2 3 2 1 1 1 1 0 1
1 3 2 3 3 3 6 8 12 12 9 10 8 11 8 5 4 4 4 3 5 6 5 5 4 3 3 4 4 3 3 2 1 1 2 2 2 1 1 1 0 1 1 1
3 3 2 3 2 2 8 11 13 8 7 8 11 10 3 4 6 7 6 5 6 6 6 5 4 4 4 4 3 3 3 2 1 1 2 2 2 1 1 1 1 1 1 1
5 3 2 2 2 7 6 2 7 8 6 7 5 4 4 6 7 6 5 5 5 6 6 6 4 4 3 3 2 2 1 0 0 1 2 2 1 1 0 1 1 1 1 1
5 5 3 3 4 7 5 0 3 5 7 6 8 7 5 4 4 5 4 4 6 5 5 5 4 3 2 1 1 1 1 2 1 1 2 2 1 0 1 0 1 1 1 2
2 3 3 2 4 6 3 3 2 3 4 3 5 6 2 1 2 6 4 4 4 3 3 2 2 2 1 1 2 3 2 2 1 1 1 1 1 2 1 1 1 2 2 2
2 1 3 3 4 5 3 3 2 4 5 4 2 3 3 4 5 5 4 3 2 3 2 2 2 2 2 1 3 3 3 2 2 2 3 3 3 2 2 2 2 2 3 3
5 4 4 3 3 6 1 3 3 4 2 2 2 2 2 3 3 3 2 3 3 4 3 3 3 3 3 3 4 4 3 2 3 3 3 3 3 3 3 3 3 3 3 3
6 6 5 7 6 3 3 3 3 1 1 2 2 2 1 2 3 3 2 2 3 3 3 3 3 3 4 3 3 3 2 3 3 4 4 4 4 4 3 3 3 3 3 2
4 2 3 4 6 4 3 3 2 1 1 1 1 1 1 2 2 2 2 2 3 3 3 3 3 4 3 3 3 3 3 3 3 3 3 3 3 4 4 3 3 2 2 2
5 4 3 5 5 4 3 3 2 2 2 2 2 2 1 1 2 1 2 2 2 2 2 2 3 3 3 3 3 3 3 3 4 3 3 3 3 3 3 3 3 2 2 1
3 5 5 6 4 3 5 3 2 2 2 2 2 3 3 1 2 1 2 2 2 2 2 2 3 3 3 3 3 4 3 3 3 3 3 3 3 3 3 3 4 5 4 5
Wind_Direction
115 125 200 203 197 188 162 175 220 250 242 202 242 262 270 261 234 242 247 244 245 250 257 251 237 234 239 246 248 249 251 259 257 269 272 271 267 267 265 258 258 255 255 251
101 230 222 178 168 168 168 190 234 283 293 216 269 274 268 247 232 230 231 233 237 250 265 260 248 237 238 241 247 250 255 258 254 253 259 251 263 263 259 258 262 259 255 249
185 214 172 158 161 176 208 200 209 231 332 336 317 297 261 253 228 232 228 226 231 232 239 246 245 243 250 253 249 253 258 257 258 261 282 302 300 296 278 278 270 260 261 254
213 232 165 168 190 176 221 211 198 203 205 286 347 284 276 257 262 242 238 235 237 239 238 240 240 245 249 252 255 253 254 256 259 251 251 261 271 278 278 274 271 272 264 259
217 187 172 191 198 170 184 133 144 159 170 295 243 229 281 273 256 251 239 236 239 237 232 235 235 238 249 251 253 256 258 263 262 254 241 241 259 268 280 285 279 276 266 258
221 205 187 186 146 154 138 87 67 59 83 262 221 196 272 232 222 244 240 240 244 243 241 244 246 247 253 262 263 261 261 271 274 260 249 240 248 261 275 286 279 280 276 264
230 238 204 143 116 118 129 117 65 352 302 246 190 210 250 244 224 224 239 247 249 241 235 244 250 253 264 272 272 268 260 269 269 262 260 250 244 242 248 263 266 275 278 277
180 232 208 183 171 167 179 161 168 196 222 263 218 235 254 256 247 244 248 248 253 249 243 242 244 245 253 261 264 265 260 266 263 259 265 261 248 245 253 251 257 258 260 264
183 214 202 177 158 143 152 189 167 139 161 267 258 274 297 252 267 265 266 269 258 252 254 253 253 251 254 258 257 253 255 265 264 258 260 260 253 251 255 255 258 259 260 265
157 180 229 164 108 70 156 148 128 150 175 242 274 261 247 256 258 274 274 268 267 268 274 268 259 258 261 257 259 256 249 253 258 257 253 259 257 257 253 252 255 258 260 263
144 153 173 147 191 181 149 152 152 147 169 179 248 266 224 217 235 252 263 266 272 274 273 271 272 274 273 274 268 262 265 271 269 263 263 266 270 274 271 260 258 253 254 256
154 142 188 229 259 211 186 179 161 168 206 192 207 266 271 213 248 256 270 278 281 277 276 273 274 283 283 279 278 273 277 279 271 264 270 268 271 282 275 266 265 255 246 250
151 145 134 319 295 209 207 189 176 140 132 170 194 261 301 293 301 290 286 291 296 290 291 288 286 282 282 281 279 276 268 272 275 271 272 279 286 280 259 260 263 260 252 257
87 173 202 209 214 180 201 198 182 162 183 207 226 254 286 287 293 301 301 298 300 294 290 289 287 284 284 284 281 278 278 273 278 279 284 294 293 283 261 252 255 261 262 271
113 201 239 272 271 195 213 204 195 204 205 208 233 239 257 260 266 273 275 291 305 305 304 291 282 283 290 296 293 289 285 293 290 300 291 289 290 285 300 281 272 283 301 303
109 182 223 276 271 238 247 227 210 220 220 231 253 262 257 258 264 267 262 270 285 290 294 287 282 291 291 287 284 285 281 280 295 285 284 297 304 316 311 314 330 13 4 356
174 163 171 238 273 287 256 220 203 208 209 201 229 245 270 271 256 251 247 249 266 278 286 284 271 266 269 270 267 265 266 273 296 299 302 306 304 297 271 345 31 9 348 19
176 172 168 170 166 230 246 193 188 200 220 211 236 256 240 251 263 251 230 233 263 277 281 282 278 271 271 265 266 268 272 345 325 309 303 303 325 306 317 58 3 348 7 19
179 165 162 173 214 265 290 256 170 195 247 229 241 263 282 308 325 286 249 237 245 260 273 277 275 264 261 262 256 103 54 45 47 7 339 326 328 43 72 57 334 360 18 21
103 146 154 175 204 226 281 315 284 148 265 290 236 251 267 49 282 276 291 281 283 300 308 315 332 357 13 352 78 79 54 42 10 339 346 6 48 76 71 42 16 20 36 30
113 128 174 200 232 255 304 346 82 154 265 314 247 242 207 208 236 273 310 312 304 316 331 9 28 21 1 34 92 87 66 27 353 27 43 47 55 69 75 57 36 42 40 38
172 171 185 168 221 257 328 103 176 247 303 318 295 270 235 261 296 313 327 333 344 350 356 19 36 21 19 55 90 83 56 20 45 58 58 52 47 50 52 65 44 44 50 41
201 195 194 199 220 275 203 217 261 262 274 299 314 314 319 322 313 329 336 339 349 0 3 15 47 40 34 46 75 82 38 42 57 61 57 50 46 45 45 56 51 39 42 40
251 206 189 245 266 277 270 295 300 249 274 315 341 343 328 313 309 333 347 349 354 0 8 23 51 50 32 34 50 61 56 64 72 67 55 52 52 41 35 30 32 36 26 19
216 184 205 249 278 302 287 276 302 339 357 7 355 332 288 301 310 317 335 338 341 355 12 48 66 55 36 37 39 43 60 74 72 64 50 43 45 48 32 21 13 8 354 337
202 190 198 234 234 232 267 281 291 297 302 312 329 328 332 316 285 313 326 334 344 4 19 44 51 55 47 45 37 31 47 71 80 64 46 41 37 33 25 16 5 5 4 355
Height
1462 1467 1468 1466 1467 1468 1471 1474 1474 1471 1470 1471 1470 1465 1460 1459 1460 1459 1458 1459 1459 1460 1461 1462 1463 1463 1463 1463 1462 1461 1460 1459 1459 1457 1456 1455 1453 1453 1452 1451 1451 1450 1450 1450
1465 1466 1461 1462 1466 1468 1470 1473 1473 1471 1469 1470 1468 1463 1456 1454 1454 1453 1453 1454 1455 1456 1457 1458 1458 1458 1458 1458 1457 1457 1456 1455 1454 1453 1452 1451 1450 1448 1447 1447 1446 1446 1445 1445
1459 1459 1457 1461 1465 1468 1470 1471 1471 1471 1470 1469 1469 1461 1454 1449 1449 1449 1449 1449 1451 1452 1452 1453 1453 1454 1454 1453 1453 1453 1452 1451 1450 1449 1448 1447 1446 1445 1443 1442 1441 1441 1440 1440
1458 1456 1457 1460 1462 1464 1467 1466 1467 1469 1473 1475 1472 1469 1452 1449 1448 1446 1445 1445 1446 1447 1448 1449 1449 1449 1449 1449 1449 1449 1448 1447 1446 1445 1444 1442 1441 1439 1438 1437 1436 1436 1436 1435
1455 1454 1455 1457 1457 1460 1463 1464 1467 1470 1473 1476 1475 1475 1455 1449 1446 1442 1441 1441 1441 1443 1444 1444 1444 1445 1445 1446 1445 1445 1444 1443 1442 1441 1440 1438 1437 1436 1434 1433 1432 1431 1431 1431
1452 1451 1452 1452 1454 1457 1461 1467 1471 1476 1477 1476 1470 1473 1456 1450 1441 1438 1437 1437 1437 1438 1439 1440 1441 1441 1441 1441 1441 1440 1439 1438 1438 1437 1436 1434 1433 1431 1430 1429 1428 1427 1427 1426
1451 1451 1450 1450 1455 1458 1460 1468 1477 1476 1482 1473 1468 1468 1452 1438 1436 1435 1434 1433 1433 1434 1435 1436 1436 1436 1437 1436 1436 1436 1435 1434 1434 1432 1431 1430 1429 1428 1427 1425 1424 1423 1422 1422
1452 1452 1448 1448 1449 1454 1458 1460 1468 1469 1471 1468 1468 1463 1443 1433 1432 1431 1431 1431 1431 1431 1432 1432 1432 1432 1432 1432 1432 1432 1431 1430 1429 1428 1427 1426 1425 1424 1423 1422 1421 1420 1419 1419
1446 1447 1445 1445 1445 1449 1457 1460 1460 1470 1472 1468 1462 1456 1441 1430 1430 1429 1429 1428 1428 1428 1428 1428 1429 1429 1429 1428 1428 1427 1427 1426 1425 1424 1424 1423 1422 1421 1420 1419 1418 1417 1416 1416
1440 1448 1445 1445 1446 1448 1450 1455 1464 1467 1464 1458 1451 1451 1443 1430 1428 1427 1427 1426 1425 1426 1426 1425 1425 1425 1425 1425 1425 1424 1423 1422 1421 1421 1420 1419 1418 1417 1417 1415 1415 1414 1413 1413
1438 1446 1449 1447 1446 1447 1452 1455 1457 1464 1463 1460 1454 1442 1429 1427 1425 1426 1425 1424 1423 1423 1423 1422 1422 1422 1422 1422 1421 1420 1419 1418 1417 1417 1417 1416 1415 1414 1413 1412 1412 1411 1410 1410
1437 1444 1449 1447 1444 1443 1444 1446 1452 1456 1462 1465 1459 1443 1423 1424 1424 1424 1423 1422 1422 1422 1421 1420 1420 1419 1419 1418 1417 1417 1416 1416 1415 1415 1414 1414 1413 1411 1410 1410 1409 1409 1408 1408
1437 1442 1445 1445 1448 1446 1445 1445 1447 1452 1459 1465 1458 1438 1423 1423 1422 1422 1421 1421 1420 1420 1419 1418 1417 1417 1416 1415 1415 1415 1414 1414 1414 1413 1412 1411 1410 1409 1408 1407 1407 1406 1406 1405
1433 1437 1436 1432 1431 1438 1442 1443 1445 1448 1452 1455 1448 1434 1425 1422 1422 1421 1420 1420 1419 1418 1417 1416 1415 1414 1414 1414 1413 1413 1412 1412 1412 1411 1410 1409 1408 1407 1406 1406 1405 1404 1404 1403
1432 1437 1435 1433 1432 1434 1433 1435 1438 1439 1439 1441 1435 1434 1423 1421 1421 1420 1419 1419 1418 1416 1415 1414 1413 1413 1412 1412 1411 1411 1411 1411 1410 1409 1408 1407 1407 1406 1405 1404 1403 1403 1402 1402
1433 1436 1436 1434 1431 1430 1430 1430 1431 1432 1432 1432 1430 1427 1419 1419 1419 1418 1418 1417 1416 1414 1413 1412 1412 1411 1410 1410 1409 1409 1409 1409 1409 1408 1407 1406 1405 1404 1403 1403 1402 1401 1401 1400
1433 1435 1435 1435 1432 1427 1426 1421 1423 1425 1424 1425 1425 1419 1418 1418 1417 1415 1415 1415 1414 1412 1411 1410 1409 1409 1408 1408 1407 1407 1407 1407 1407 1406 1405 1404 1403 1402 1402 1401 1401 1400 1399 1399
1430 1434 1437 1437 1432 1429 1412 1411 1412 1416 1417 1418 1416 1414 1414 1414 1412 1412 1412 1412 1411 1410 1409 1408 1408 1407 1407 1406 1406 1405 1405 1404 1404 1403 1403 1402 1401 1400 1400 1400 1399 1399 1398 1397
1425 1430 1436 1435 1430 1421 1413 1413 1414 1416 1415 1413 1413 1412 1412 1412 1411 1409 1409 1410 1409 1408 1407 1406 1405 1405 1405 1404 1404 1403 1403 1402 1401 1401 1400 1400 1399 1399 1398 1398 1398 1397 1396 1396
1425 1427 1432 1434 1426 1416 1412 1411 1409 1411 1413 1409 1409 1410 1411 1411 1414 1408 1407 1407 1406 1406 1405 1404 1403 1403 1402 1402 1402 1401 1401 1400 1400 1399 1399 1399 1398 1398 1397 1396 1396 1396 1395 1395
1428 1430 1431 1432 1427 1416 1413 1411 1409 1415 1412 1408 1407 1407 1408 1409 1408 1407 1405 1405 1404 1404 1403 1403 1402 1401 1401 1400 1400 1400 1399 1399 1399 1398 1398 1397 1397 1396 1396 1395 1395 1395 1394 1394
1424 1429 1431 1431 1427 1418 1412 1412 1414 1411 1408 1407 1406 1406 1406 1406 1405 1404 1403 1403 1402 1401 1401 1401 1401 1400 1399 1399 1398 1398 1398 1398 1398 1398 1397 1397 1396 1395 1395 1395 1394 1394 1393 1392
1420 1419 1419 1419 1415 1410 1409 1408 1408 1408 1407 1407 1406 1405 1405 1404 1404 1403 1402 1402 1401 1401 1400 1400 1400 1399 1399 1398 1398 1398 1398 1398 1398 1397 1397 1396 1396 1395 1395 1394 1394 1393 1393 1392
1416 1414 1415 1415 1410 1408 1407 1407 1406 1406 1407 1406 1406 1405 1405 1404 1403 1402 1401 1401 1401 1400 1400 1400 1399 1399 1398 1398 1398 1399 1399 1398 1398 1397 1396 1396 1395 1395 1395 1394 1394 1393 1392 1392
1411 1412 1413 1411 1408 1406 1405 1405 1405 1405 1405 1405 1404 1404 1404 1403 1402 1401 1401 1400 1400 1400 1400 1399 1399 1399 1399 1399 1399 1399 1398 1398 1397 1396 1396 1395 1395 1394 1393 1393 1394 1393 1393 1392
1408 1408 1409 1406 1403 1404 1403 1403 1404 1403 1403 1403 1403 1402 1402 1402 1401 1401 1400 1400 1400 1399 1399 1399 1399 1399 1399 1399 1399 1399 1398 1398 1397 1396 1395 1395 1394 1394 1393 1393 1392 1392 1392 1392